{"data":{"norad_id":66775,"epoch":"2026-09-20T10:31:36.352416Z","epoch_age_seconds":123109,"freshness":"FRESH","line1":"1 66775U 25276DP  26263.43861519  .00004040  00000+0  17846-3 0  9995","line2":"2 66775  97.4050 335.7689 0002280 136.0667 224.0751 15.22292072 44933","mean_motion":15.22292072,"eccentricity":0.000228,"inclination_deg":97.405,"raan_deg":335.7689,"arg_perigee_deg":136.0667,"mean_anomaly_deg":224.0751,"bstar":0.00017846,"rev_number":4493,"period_min":94.59419952888,"perigee_km":497.36090095452,"apogee_km":500.49684299214,"semimajor_km":6877.0658719733,"source":"CELESTRAK","updated_at":"2026-09-21T09:00:16.187211Z"}}